{"data":{"norad_id":42806,"intl_designator":"2017-039D","name":"IRIDIUM 115","alt_names":[],"object_type":"PAYLOAD","status":"ACTIVE","operator":null,"country":"US","launch_date":"2017-06-25","launch_site_code":"AFWTR","launch_vehicle":null,"mission":null,"orbit_class":"UNKNOWN","rcs_meters":null,"size_class":null,"mass_kg":null,"dimensions":null,"purposes":["comms"],"wikipedia_slug":null,"has_3d_model":false,"image_url":null,"decayed_at":null,"tle_current":{"epoch":"2026-09-20T04:06:27.468000Z","epoch_age_seconds":44026,"freshness":"FRESH","line1":"1 42806U 17039D   26263.17115125  .00000071  00000+0  15075-4 0  9991","line2":"2 42806  86.4444 282.3849 0002287  86.3280 273.8182 14.43279630487968","mean_motion":14.4327963,"eccentricity":0.0002287,"inclination_deg":86.4444,"raan_deg":282.3849,"arg_perigee_deg":86.328,"mean_anomaly_deg":273.8182,"bstar":1.5075e-5,"rev_number":48796,"period_min":99.772765448093,"perigee_km":746.05341428228,"apogee_km":749.31276439114,"semimajor_km":7125.8200893367,"source":"CELESTRAK","updated_at":"2026-09-20T09:00:36.322501Z"}}}